Regional Weather Roundup
Issued by NWS

Current Version | Previous Version | Text Only | Print | Product List | Glossary On
Versions: 1 2 3 4 5 6 7 8 9 10 11 12 13 14 15 16 17 18 19 20 21 22 23 24 25 26 27 28 29 30 31 32 33 34 35 36 37 38 39 40 41 42 43 44 45 46 47 48 49 50
000
ASUS44 KMEG 240110
RWRTN
TENNESSEE HOURLY STATE WEATHER ROUNDUP
NATIONAL WEATHER SERVICE MEMPHIS TN
800 PM CDT MON OCT 23 2017

TNZ002-004-019-021-049-052-054-088>092-240200-
WEST TENNESSEE

CITY           SKY/WX    TMP DP  RH WIND       PRES   REMARKS
MEMPHIS INTL   CLEAR     62  45  53 SW9       29.92R
NWS MEMPHIS      N/A     62 N/A N/A MISG        N/A
JACKSON        CLEAR     56  48  74 S7        29.90S
DYERSBURG        N/A     60  47  61 S6        29.88S
SOMERVILLE     CLEAR     59  46  63 S6        29.90S
COVINGTON      CLEAR     57  46  67 S7        29.89F
UNION CITY     CLEAR     54  48  82 S9        29.85S
BOLIVAR        CLEAR     55  46  71 S3        29.91R
PARIS          CLEAR     52  46  82 S8        29.87S
HUNTINGDON     CLEAR     54  48  82 S5        29.88R
LEXINGTON      CLEAR     54  48  82 CALM      29.91S
SELMER         CLEAR     55  46  71 CALM      29.92S
SAVANNAH       CLEAR     54  50  87 S5        29.92F
$$

TNZ008-025-027-028-033-062-065-066-240200-
NORTH MIDDLE TENNESSEE

CITY           SKY/WX    TMP DP  RH WIND       PRES   REMARKS
NASHVILLE      PTCLDY    54  48  80 SW8       29.92R
PORTLAND       CLEAR     52  46  82 SW6       29.90R
CLARKSVILLE    CLEAR     53  45  74 SW5       29.89R
SMYRNA         CLEAR     52  48  86 S3        29.93R
COOKEVILLE     CLOUDY    52  50  93 CALM      29.92R
CROSSVILLE     CLOUDY    49  46  90 W9        29.92R
$$

TNZ061-075-076-078-094-096-097-240200-
SOUTH MIDDLE TENNESSEE

CITY           SKY/WX    TMP DP  RH WIND       PRES   REMARKS
FAYETTEVILLE   CLEAR     50  48  93 CALM      29.94S
TULLAHOMA      CLEAR     48  46  93 S3        29.94F
WINCHESTER     CLEAR     52  48  87 CALM        N/A
COLUMBIA       MOCLDY    52  48  87 CALM      29.92R
SHELBYVILLE    CLEAR     50  48  93 CALM      29.93F
$$

TNZ017-018-042-046-047-240200-
NORTHEAST TENNESSEE

CITY           SKY/WX    TMP DP  RH WIND       PRES   REMARKS
TRI CITIES     PTCLDY    56  55  97 SW8       29.86R
ELIZABETHTON   MOCLDY    57  52  82 SW6G12    29.87R
$$

TNZ012-013-036-069-073-074-240200-
CENTRAL EAST TENNESSEE

CITY           SKY/WX    TMP DP  RH WIND       PRES   REMARKS
KNOXVILLE      CLOUDY    58  55  90 SW18      29.88R
OAK RIDGE      MOCLDY    58  54  86 VRB3      29.90R
DOWNTOWN KNOXV CLOUDY    61  52  72 W13G23    29.88R
GATLINBURG     CLOUDY    61  52  72 W12G22    29.87R
MORRISTOWN     CLOUDY    59  52  77 W10G17    29.86R
JACKSBORO      CLOUDY    57  54  88 CALM      29.90R
$$

TNZ083-085-099-240200-
SOUTHEAST TENNESSEE

CITY           SKY/WX    TMP DP  RH WIND       PRES   REMARKS
CHATTANOOGA    MOCLDY    58  52  80 SW7       29.95R
DAYTON         MOCLDY    57  55  94 SW8G17    29.93R
$$

SKY/WX REPORTED AS FAIR MEANS FEW OR NO CLOUDS BELOW
12 THOUSAND FEET.





USA.gov is the U.S. government's official web portal to all federal, state and local government web resources and services.